Regional Weather Roundup
Issued by NWS Cleveland, OH

Home | Current Version | Previous Version | Text Only | Print | Product List | Glossary Off
Versions: 1 2 3 4 5 6 7 8 9 10 11 12 13 14 15 16 17 18 19 20 21 22 23 24 25 26 27 28 29 30 31 32 33 34 35 36 37 38 39 40 41 42 43 44 45 46 47 48 49 50

000
ASUS41 KCLE 190510
RWRCLE
OHIO REGIONAL WEATHER ROUNDUP
NATIONAL WEATHER SERVICE CLEVELAND, OH
100 AM EDT THU APR 19 2018

NOTE: "FAIR" INDICATES FEW OR NO CLOUDS BELOW 12,000 FEET WITH NO
SIGNIFICANT WEATHER AND/OR OBSTRUCTIONS TO VISIBILITY.

OHZ001>008-015>018-024>027-034-035-043-044-190600-
   NORTHWEST OHIO

CITY           SKY/WX    TMP DP  RH WIND       PRES   REMARKS
DEFIANCE       CLOUDY    35  33  92 NE8       29.83F FOG     WCI  29
FINDLAY        CLOUDY    38  29  70 NE9       29.81R
TOLEDO EXPRESS LGT RAIN  36  35  96 NE13G20   29.84R FOG
TOLEDO EXEC    CLOUDY    36  32  85 NE8       29.85R FOG
LIMA           CLOUDY    35  31  85 NE7       29.79F WCI  29
$$

OHZ009>014-019>023-028>033-038-089-190600-
   NORTHEAST OHIO

CITY           SKY/WX    TMP DP  RH WIND       PRES   REMARKS
CLE-HOPKINS    CLOUDY    37  32  82 N13       29.82R
CLE-LAKEFRONT  FLURRIES  36  30  79 N16       29.79F
CUY CO. ARPT   NOT AVBL
LORAIN-ELYRIA  CLOUDY    35  27  72 NE16      29.81R WCI  25
ASHTABULA      CLOUDY    33  30  88 E3        29.78F
AKRON-CANTON   LGT RAIN  37  31  78 NE6       29.76S
WOOSTER        CLOUDY    35  31  85 N7        29.76F WCI  29
MANSFIELD      MOCLDY    34  30  85 N6        29.77S WCI  29
YOUNGSTOWN     LGTSLEET  35  30  82 N8        29.75R WCI  29
$$

OHZ042-051>053-060>062-070>072-077>081-190600-
  SOUTHWEST OHIO

CITY           SKY/WX    TMP DP  RH WIND       PRES   REMARKS
CINC-COVINGTON CLOUDY    45  34  65 NW15      29.86R
CINC-LUNKEN    CLOUDY    47  36  65 W14       29.87R
HAMILTON       CLOUDY    46  34  62 W13       29.87R
DAYTON         MOCLDY    42  37  82 W17G25    29.81R
WRIGHT-PAT AFB CLOUDY    44  35  72 W13       29.81R
DAYTON GENERAL CLOUDY    45  33  63 W14G21    29.82R
WILMINGTON     MOCLDY    45  37  73 NW18G25   29.81R
$$

OHZ036-037-039>041-045>050-054>059-063>069-073>076-082>088-190600-
  CENTRAL AND SOUTHEAST OHIO

CITY           SKY/WX    TMP DP  RH WIND       PRES   REMARKS
COLUMBUS       MOCLDY    44  41  89 NW8       29.76R
OSU AIRPORT    MOCLDY    38  35  89 NW9       29.78R
BOLTON FIELD   CLOUDY    39  37  93 NW9       29.79R FOG
RICKENBACK AFB MOCLDY    44  44 100 W3        29.78R
NEWARK         CLOUDY    45  41  86 CALM      29.75R
MARION         MOCLDY    34  31  88 N6        29.79R WCI  29
LANCASTER      CLOUDY    45  43  93 NW5       29.77R
ZANESVILLE     CLOUDY    44  42  93 N6        29.75R
NEW PHILLY     NOT AVBL
$$




USA.gov is the U.S. government's official web portal to all federal, state and local government web resources and services.